• In Uzbekistan
  • List of Countries
  • For 7 days
  • Water Temperature
  • Satellite Maps
  • Weather Map
  • Weather Widgets
  • user-avatar
    Login

    Hourly Weather Sarajevo

    Today, 23 August, Wednesday

    Time Temperature Precipitation Wind Pressure Humidity
    00:00 +10°C° 0 mm 1 mps 689 mmHg 74%
    01:00 +10°C° 0 mm 1 mps 689 mmHg 75%
    02:00 +9°C° 0 mm 1 mps 689 mmHg 76%
    03:00 +9°C° 0 mm 1 mps 689 mmHg 77%
    04:00 +9°C° 0 mm 1 mps 688 mmHg 78%
    05:00 +11°C° 0 mm 1 mps 689 mmHg 72%
    06:00 +12°C° 0 mm 1 mps 690 mmHg 66%
    07:00 +15°C° 0 mm 1 mps 690 mmHg 58%
    08:00 +18°C° 0 mm 1 mps 691 mmHg 51%
    09:00 +20°C° 0 mm 1 mps 691 mmHg 43%
    10:00 +22°C° 0 mm 1 mps 692 mmHg 36%
    11:00 +23°C° 0 mm 1 mps 692 mmHg 34%
    12:00 +24°C° 0 mm 2 mps 692 mmHg 32%
    13:00 +25°C° 0 mm 1 mps 692 mmHg 31%
    14:00 +25°C° 0 mm 1 mps 692 mmHg 32%
    15:00 +24°C° 0 mm 2 mps 692 mmHg 33%
    16:00 +24°C° 0 mm 2 mps 692 mmHg 33%
    17:00 +20°C° 0 mm 2 mps 692 mmHg 41%
    18:00 +19°C° 0 mm 1 mps 691 mmHg 49%
    19:00 +15°C° 0 mm 1 mps 691 mmHg 57%
    20:00 +14°C° 0 mm 1 mps 691 mmHg 58%
    21:00 +14°C° 0 mm 1 mps 691 mmHg 59%
    22:00 +13°C° 0 mm 1 mps 691 mmHg 60%
    23:00 +13°C° 0 mm 1 mps 691 mmHg 60%

    Tomorrow, 24 August, Thursday

    Time Temperature Precipitation Wind Pressure Humidity
    00:00 +13°C° 0 mm 1 mps 691 mmHg 60%
    01:00 +12°C° 0 mm 1 mps 691 mmHg 60%
    02:00 +12°C° 0 mm 1 mps 691 mmHg 60%
    03:00 +12°C° 0 mm 1 mps 691 mmHg 60%
    04:00 +12°C° 0 mm 1 mps 691 mmHg 60%
    05:00 +14°C° 0 mm 1 mps 691 mmHg 57%
    06:00 +15°C° 0 mm 1 mps 692 mmHg 54%
    07:00 +18°C° 0 mm 1 mps 692 mmHg 51%
    08:00 +21°C° 0 mm 1 mps 693 mmHg 45%
    09:00 +24°C° 0 mm 1 mps 694 mmHg 39%
    10:00 +25°C° 0 mm 0 mps 694 mmHg 32%
    11:00 +27°C° 0 mm 1 mps 694 mmHg 31%
    12:00 +28°C° 0 mm 1 mps 694 mmHg 30%
    13:00 +29°C° 0 mm 2 mps 694 mmHg 28%
    14:00 +28°C° 0 mm 2 mps 694 mmHg 30%
    15:00 +28°C° 0 mm 2 mps 694 mmHg 32%
    16:00 +27°C° 0 mm 2 mps 694 mmHg 34%
    17:00 +25°C° 0 mm 1 mps 693 mmHg 42%
    18:00 +22°C° 0 mm 1 mps 693 mmHg 51%
    19:00 +17°C° 0 mm 0 mps 692 mmHg 59%
    20:00 +18°C° 0 mm 1 mps 692 mmHg 60%
    21:00 +18°C° 0 mm 1 mps 693 mmHg 60%
    22:00 +16°C° 0 mm 1 mps 693 mmHg 61%
    23:00 +16°C° 0 mm 1 mps 693 mmHg 61%

    Day after tomorrow, 25 August, Friday

    Time Temperature Precipitation Wind Pressure Humidity
    00:00 +16°C° 0 mm 1 mps 693 mmHg 60%
    01:00 +16°C° 0 mm 1 mps 692 mmHg 60%
    02:00 +15°C° 0 mm 1 mps 692 mmHg 60%
    03:00 +15°C° 0 mm 1 mps 692 mmHg 60%
    04:00 +15°C° 0 mm 1 mps 692 mmHg 60%
    05:00 +18°C° 0 mm 1 mps 693 mmHg 57%
    06:00 +19°C° 0 mm 1 mps 693 mmHg 55%
    07:00 +21°C° 0 mm 1 mps 693 mmHg 52%
    08:00 +24°C° 0 mm 1 mps 694 mmHg 44%
    09:00 +27°C° 0 mm 1 mps 694 mmHg 37%
    10:00 +29°C° 0 mm 1 mps 695 mmHg 29%
    11:00 +30°C° 0 mm 1 mps 695 mmHg 28%
    12:00 +31°C° 0 mm 1 mps 695 mmHg 26%
    13:00 +32°C° 0 mm 1 mps 694 mmHg 25%
    14:00 +31°C° 0 mm 1 mps 694 mmHg 26%
    15:00 +31°C° 0 mm 1 mps 694 mmHg 28%
    16:00 +30°C° 0 mm 1 mps 693 mmHg 29%
    17:00 +27°C° 0 mm 1 mps 693 mmHg 37%
    18:00 +24°C° 0 mm 1 mps 692 mmHg 44%
    19:00 +19°C° 0 mm 0 mps 692 mmHg 52%
    20:00 +20°C° 0 mm 1 mps 692 mmHg 52%
    21:00 +20°C° 0 mm 1 mps 692 mmHg 53%
    22:00 +19°C° 0 mm 1 mps 692 mmHg 54%
    23:00 +19°C° 0 mm 1 mps 692 mmHg 53%

    26 August, Saturday

    Time Temperature Precipitation Wind Pressure Humidity
    00:00 +19°C° 0 mm 1 mps 692 mmHg 53%
    01:00 +18°C° 0 mm 1 mps 691 mmHg 53%
    02:00 +18°C° 0 mm 1 mps 691 mmHg 52%
    03:00 +18°C° 0 mm 1 mps 691 mmHg 52%
    04:00 +18°C° 0 mm 1 mps 691 mmHg 51%
    05:00 +19°C° 0 mm 1 mps 691 mmHg 49%
    06:00 +21°C° 0 mm 1 mps 692 mmHg 48%
    07:00 +22°C° 0 mm 1 mps 692 mmHg 46%
    08:00 +25°C° 0 mm 1 mps 693 mmHg 40%
    09:00 +28°C° 0 mm 1 mps 693 mmHg 34%
    10:00 +31°C° 0 mm 1 mps 694 mmHg 28%
    11:00 +32°C° 0 mm 1 mps 694 mmHg 27%
    12:00 +32°C° 0 mm 1 mps 693 mmHg 25%
    13:00 +33°C° 0 mm 1 mps 693 mmHg 23%
    14:00 +32°C° 0 mm 1 mps 693 mmHg 25%
    15:00 +32°C° 0 mm 2 mps 693 mmHg 26%
    16:00 +31°C° 0 mm 2 mps 692 mmHg 28%
    17:00 +28°C° 0 mm 1 mps 692 mmHg 35%
    18:00 +25°C° 0 mm 1 mps 691 mmHg 42%
    19:00 +20°C° 0 mm 0 mps 690 mmHg 49%
    20:00 +21°C° 0 mm 1 mps 691 mmHg 50%
    21:00 +21°C° 0 mm 1 mps 691 mmHg 50%
    22:00 +20°C° 0 mm 1 mps 691 mmHg 50%
    23:00 +20°C° 0 mm 1 mps 691 mmHg 49%

    27 August, Sunday

    Time Temperature Precipitation Wind Pressure Humidity
    00:00 +19°C° 0 mm 1 mps 690 mmHg 47%
    01:00 +19°C° 0 mm 1 mps 690 mmHg 46%
    02:00 +19°C° 0 mm 1 mps 690 mmHg 45%
    03:00 +19°C° 0 mm 1 mps 690 mmHg 44%
    04:00 +18°C° 0 mm 1 mps 690 mmHg 44%
    05:00 +20°C° 0 mm 1 mps 690 mmHg 43%
    06:00 +21°C° 0 mm 1 mps 691 mmHg 42%
    07:00 +23°C° 0 mm 1 mps 691 mmHg 42%
    08:00 +26°C° 0 mm 1 mps 692 mmHg 36%
    09:00 +29°C° 0 mm 1 mps 692 mmHg 31%
    10:00 +31°C° 0 mm 1 mps 693 mmHg 25%
    11:00 +32°C° 0 mm 1 mps 693 mmHg 24%
    12:00 +33°C° 0 mm 1 mps 692 mmHg 23%
    13:00 +34°C° 0 mm 2 mps 692 mmHg 22%
    14:00 +34°C° 0 mm 2 mps 692 mmHg 23%
    15:00 +32°C° 0 mm 2 mps 691 mmHg 25%
    16:00 +32°C° 0 mm 2 mps 691 mmHg 27%
    17:00 +28°C° 0 mm 1 mps 691 mmHg 34%
    18:00 +25°C° 0 mm 1 mps 690 mmHg 41%
    19:00 +20°C° 0 mm 0 mps 690 mmHg 48%
    20:00 +22°C° 0 mm 1 mps 690 mmHg 47%
    21:00 +21°C° 0 mm 1 mps 690 mmHg 47%
    22:00 +21°C° 0 mm 1 mps 690 mmHg 46%
    23:00 +20°C° 0 mm 1 mps 689 mmHg 46%

    28 August, Monday

    Time Temperature Precipitation Wind Pressure Humidity
    00:00 +20°C° 0 mm 1 mps 689 mmHg 45%
    01:00 +20°C° 0 mm 1 mps 689 mmHg 44%
    02:00 +19°C° 0 mm 1 mps 689 mmHg 44%
    03:00 +19°C° 0 mm 1 mps 689 mmHg 43%
    04:00 +19°C° 0 mm 1 mps 689 mmHg 43%
    05:00 +20°C° 0 mm 1 mps 689 mmHg 43%
    06:00 +22°C° 0 mm 1 mps 690 mmHg 42%
    07:00 +23°C° 0 mm 1 mps 690 mmHg 42%
    08:00 +26°C° 0 mm 1 mps 691 mmHg 36%
    09:00 +29°C° 0 mm 1 mps 691 mmHg 31%
    10:00 +31°C° 0 mm 1 mps 691 mmHg 25%
    11:00 +32°C° 0 mm 1 mps 691 mmHg 24%
    12:00 +32°C° 0 mm 2 mps 691 mmHg 23%
    13:00 +34°C° 0 mm 2 mps 691 mmHg 22%
    14:00 +34°C° 0 mm 2 mps 691 mmHg 24%
    15:00 +32°C° 0 mm 2 mps 691 mmHg 25%
    16:00 +33°C° 0 mm 3 mps 690 mmHg 27%
    17:00 +29°C° 0 mm 2 mps 690 mmHg 34%
    18:00 +26°C° 0 mm 2 mps 690 mmHg 40%
    19:00 +23°C° 0 mm 1 mps 689 mmHg 47%
    20:00 +23°C° 0.1 mm 2 mps 690 mmHg 49%
    21:00 +21°C° 0.1 mm 2 mps 690 mmHg 52%
    22:00 +20°C° 0.1 mm 2 mps 690 mmHg 55%
    23:00 +20°C° 0.1 mm 2 mps 690 mmHg 60%
    Show more